Location: *
(49.3500°N, 12.6000°E)
Time: 19:43:34
(UTC+00:00)

ARGOS - Pass Details

Date: 18 October 2019
Orbit: 820 x 835 km, 98.5° (Epoch: 11 November)

Event Time Altitude Azimuth Distance (km) Brightness Sun altitude
Exits shadow 18:19:43 41° 77° (ENE) 1,197 3.5 -21.1°
Maximum altitude 18:20:07 42° 66° (ENE) 1,186 3.6 -21.2°
Drops below altitude 10° 18:25:11 10° 357° (N) 2,458 5.8 -22.0°
Sets 18:27:40 0° 351° (N) 3,397 6.6 -22.4°
